Bogalusa, LA

11:42 AM CST on January 24, 2017 (GMT -0600)
Carr Memorial

Weather History for KBXA - December, 2012

Change the Weather History Date:

Saturday, December 29, 2012

  Actual Average Record
Temperature  
Mean Temperature 40 °F -  
Max Temperature 48 °F 62 °F 71 °F (2016)
Min Temperature 32 °F 40 °F 32 °F (2012)
Degree Days  
Heating Degree Days 25    
Moisture  
Dew Point 33 °F    
Average Humidity 71    
Maximum Humidity 100    
Minimum Humidity 43    
Precipitation  
Precipitation 0.02 in - - ()
Sea Level Pressure  
Sea Level Pressure 30.23 in    
Wind  
Wind Speed 10 mph (NNW)    
Max Wind Speed 17 mph    
Max Gust Speed 24 mph    
Visibility 10 miles    
Events      
Averages and records for this station are not official NWS values.
T = Trace of Precipitation, MM = Missing Value Source: NWS Daily Summary

Daily Weather History Graph

Daily Weather History Graph

Search for Another Location

Airport or City:

Trip Planner

Search our weather history database for the weather conditions in past years. The results will help you decide how hot, cold, wet, or windy it might be!

Date:

Astronomy

Dec. 29, 2012 Rise Set
Actual Time 6:56 AM CST 5:07 PM CST
Civil Twilight 6:29 AM CST 5:33 PM CST
Nautical Twilight 5:59 AM CST 6:03 PM CST
Astronomical Twilight 5:30 AM CST 6:33 PM CST
Moon 6:33 PM CST (12/29) 7:35 AM CST (12/29)
Length of Visible Light 11h 03m
Length of Day
10h 10m
Full, 98% of the Moon is Illuminated
Dec 29
Full
Jan 4
Last Quarter
Jan 11
New
Jan 18
First Quarter
Jan 26
Full

Hourly Weather History & Observations

Time (CST) Temp. Windchill Dew Point Humidity Pressure Visibility Wind Dir Wind Speed Gust Speed Precip Events Conditions
12:15 AM 46.6 °F - 46.6 °F 100% 29.99 in 10.0 mi NW 16.1 mph 21.9 mph N/A   Unknown
12:35 AM 46.4 °F 41.9 °F 46.4 °F 100% 29.99 in 10.0 mi NNW 9.2 mph 19.6 mph N/A   Unknown
12:55 AM 46.0 °F 40.6 °F 46.0 °F 100% 30.00 in 10.0 mi North 11.5 mph 18.4 mph N/A   Unknown
1:15 AM 45.9 °F 40.0 °F 45.9 °F 100% 30.01 in 10.0 mi NW 12.7 mph 19.6 mph N/A   Unknown
1:35 AM 45.7 °F 40.2 °F 45.7 °F 100% 30.02 in 10.0 mi NNW 11.5 mph 18.4 mph N/A   Unknown
1:55 AM 45.5 °F 40.3 °F 45.5 °F 100% 30.03 in 10.0 mi NNW 10.4 mph 20.7 mph N/A   Unknown
2:15 AM 45.1 °F 39.9 °F 45.1 °F 100% 30.04 in 10.0 mi NNW 10.4 mph - N/A   Unknown
2:35 AM 44.1 °F 37.7 °F 44.1 °F 100% 30.05 in 10.0 mi NNW 12.7 mph 21.9 mph N/A   Unknown
2:55 AM 43.2 °F 37.4 °F 43.2 °F 100% 30.06 in 10.0 mi NNW 10.4 mph 19.6 mph N/A   Unknown
3:15 AM 42.8 °F 35.8 °F 41.4 °F 95% 30.07 in 10.0 mi NNW 13.8 mph 23.0 mph N/A   Unknown
3:35 AM 42.3 °F 34.1 °F 35.8 °F 78% 30.08 in 10.0 mi NNW 17.3 mph 21.9 mph N/A   Unknown
3:55 AM 42.3 °F 37.3 °F 36.1 °F 79% 30.09 in 10.0 mi NNW 8.1 mph - N/A   Unknown
4:15 AM 42.1 °F 35.2 °F 35.8 °F 78% 30.09 in 10.0 mi NW 12.7 mph 19.6 mph N/A   Unknown
4:35 AM 41.9 °F 34.6 °F 35.8 °F 79% 30.10 in 10.0 mi NNW 13.8 mph 19.6 mph N/A   Unknown
4:55 AM 41.9 °F 35.0 °F 35.4 °F 78% 30.11 in 10.0 mi NNW 12.7 mph 18.4 mph N/A   Unknown
5:15 AM 41.9 °F 34.6 °F 34.7 °F 76% 30.13 in 10.0 mi NNW 13.8 mph 24.2 mph N/A   Unknown
5:35 AM 41.9 °F 35.0 °F 34.9 °F 76% 30.14 in 10.0 mi NNW 12.7 mph 17.3 mph N/A   Unknown
5:55 AM 41.9 °F 35.0 °F 34.9 °F 76% 30.14 in 10.0 mi North 12.7 mph - N/A   Unknown
6:15 AM 41.7 °F 35.2 °F 34.7 °F 76% 30.14 in 10.0 mi North 11.5 mph 17.3 mph N/A   Unknown
6:35 AM 41.7 °F 37.3 °F 34.9 °F 77% 30.16 in 10.0 mi North 6.9 mph - N/A   Unknown
6:55 AM 41.5 °F 36.4 °F 34.9 °F 77% 30.18 in 10.0 mi NNW 8.1 mph - N/A   Unknown
7:15 AM 41.5 °F 36.4 °F 34.2 °F 75% 30.18 in 10.0 mi NNW 8.1 mph 16.1 mph N/A   Unknown
7:35 AM 41.5 °F 37.1 °F 34.3 °F 76% 30.19 in 10.0 mi North 6.9 mph - N/A   Unknown
7:55 AM 41.5 °F 38.6 °F 34.2 °F 75% 30.21 in 10.0 mi North 4.6 mph - N/A   Unknown
8:15 AM 41.7 °F 38.0 °F 34.7 °F 76% 30.22 in 10.0 mi NNW 5.8 mph - N/A   Unknown
8:35 AM 41.5 °F 37.1 °F 34.5 °F 76% 30.23 in 10.0 mi NW 6.9 mph - N/A   Unknown
8:55 AM 41.9 °F 37.5 °F 34.9 °F 76% 30.23 in 10.0 mi NNW 6.9 mph - N/A   Unknown
9:15 AM 41.9 °F 36.9 °F 34.9 °F 76% 30.24 in 10.0 mi NNW 8.1 mph - N/A   Unknown
9:35 AM 42.4 °F 37.5 °F 34.5 °F 74% 30.25 in 10.0 mi NNW 8.1 mph - N/A   Overcast
9:55 AM 42.8 °F 37.0 °F 34.3 °F 72% 30.26 in 10.0 mi WNW 10.4 mph - N/A   Overcast
10:15 AM 42.8 °F 36.2 °F 34.3 °F 72% 30.27 in 10.0 mi NW 12.7 mph 16.1 mph N/A   Overcast
10:35 AM 43.2 °F 37.4 °F 34.0 °F 70% 30.27 in 10.0 mi NW 10.4 mph - N/A   Scattered Clouds
10:55 AM 43.2 °F 37.4 °F 32.7 °F 67% 30.26 in 10.0 mi NW 10.4 mph - N/A   Clear
11:15 AM 43.7 °F 38.6 °F 34.7 °F 71% 30.26 in 10.0 mi WNW 9.2 mph - N/A   Clear
11:35 AM 44.6 °F 39.2 °F 33.4 °F 65% 30.26 in 10.0 mi NW 10.4 mph 19.6 mph N/A   Unknown
11:55 AM 45.5 °F 41.3 °F 32.5 °F 61% 30.25 in 10.0 mi NW 8.1 mph - N/A   Unknown
12:15 PM 45.3 °F 39.7 °F 31.5 °F 58% 30.24 in 10.0 mi NW 11.5 mph 18.4 mph N/A   Unknown
12:35 PM 46.0 °F 40.6 °F 31.1 °F 56% 30.24 in 10.0 mi WNW 11.5 mph 19.6 mph N/A   Unknown
12:55 PM 46.6 °F - 30.6 °F 54% 30.23 in 10.0 mi NW 12.7 mph 19.6 mph N/A   Unknown
1:15 PM 47.3 °F - 30.2 °F 52% 30.23 in 10.0 mi NNW 10.4 mph - N/A   Unknown
1:35 PM 47.7 °F - 30.4 °F 51% 30.23 in 10.0 mi NNW 15.0 mph 18.4 mph N/A   Unknown
1:55 PM 48.4 °F - 30.4 °F 50% 30.23 in 10.0 mi NW 12.7 mph 18.4 mph N/A   Unknown
2:35 PM 48.7 °F - 27.3 °F 43% 30.23 in 10.0 mi NNW 12.7 mph 17.3 mph N/A   Unknown
2:55 PM 48.6 °F - 27.3 °F 44% 30.24 in 10.0 mi NNW 11.5 mph 16.1 mph N/A   Unknown
3:15 PM 48.4 °F - 27.5 °F 44% 30.25 in 10.0 mi NW 10.4 mph - N/A   Unknown
3:35 PM 48.4 °F - 27.0 °F 43% 30.25 in 10.0 mi NNW 10.4 mph - N/A   Unknown
3:55 PM 48.2 °F - 27.5 °F 45% 30.26 in 10.0 mi NNW 9.2 mph - N/A   Unknown
4:15 PM 47.5 °F - 28.4 °F 48% 30.26 in 10.0 mi NNW 6.9 mph - N/A   Unknown
4:35 PM 46.2 °F 42.2 °F 28.0 °F 49% 30.27 in 10.0 mi North 8.1 mph - N/A   Unknown
4:55 PM 44.2 °F 42.7 °F 30.7 °F 59% 30.28 in 10.0 mi NNW 3.5 mph - N/A   Unknown
5:15 PM 42.8 °F 38.6 °F 29.3 °F 59% 30.29 in 10.0 mi NNW 6.9 mph - N/A   Unknown
5:35 PM 41.0 °F 38.0 °F 29.8 °F 64% 30.30 in 10.0 mi NNW 4.6 mph - N/A   Unknown
5:55 PM 41.2 °F 37.3 °F 29.5 °F 63% 30.31 in 10.0 mi NNW 5.8 mph - N/A   Unknown
6:15 PM 41.7 °F 36.7 °F 27.7 °F 58% 30.31 in 10.0 mi North 8.1 mph - N/A   Unknown
6:35 PM 41.2 °F 36.6 °F 27.1 °F 57% 30.34 in 10.0 mi NNW 6.9 mph - N/A   Unknown
7:15 PM 39.7 °F 34.9 °F 26.8 °F 60% 30.36 in 10.0 mi NNW 6.9 mph - N/A   Unknown
7:35 PM 39.2 °F 35.0 °F 26.6 °F 61% 30.37 in 10.0 mi North 5.8 mph - N/A   Unknown
7:55 PM 38.1 °F 35.7 °F 27.1 °F 65% 30.39 in 10.0 mi NNW 3.5 mph - N/A   Unknown
8:15 PM 38.1 °F 32.9 °F 27.3 °F 65% 30.40 in 10.0 mi NNW 6.9 mph - N/A   Unknown
8:35 PM 37.4 °F 32.8 °F 26.8 °F 66% 30.40 in 10.0 mi NNW 5.8 mph - N/A   Unknown
8:55 PM 36.5 °F 32.7 °F 26.6 °F 67% 30.41 in 10.0 mi NNW 4.6 mph - N/A   Unknown
9:15 PM 36.5 °F 31.8 °F 27.1 °F 69% 30.42 in 10.0 mi NNW 5.8 mph - N/A   Unknown
9:35 PM 36.0 °F 32.1 °F 26.6 °F 69% 30.42 in 10.0 mi NNW 4.6 mph - N/A   Unknown
9:55 PM 36.5 °F 32.7 °F 27.1 °F 69% 30.43 in 10.0 mi NNW 4.6 mph - N/A   Unknown
10:15 PM 36.0 °F 32.1 °F 27.1 °F 70% 30.43 in 10.0 mi North 4.6 mph - N/A   Unknown
10:35 PM 34.7 °F 31.8 °F 27.0 °F 73% 30.43 in 10.0 mi North 3.5 mph - N/A   Unknown
10:55 PM 34.2 °F 31.2 °F 27.5 °F 77% 30.43 in 10.0 mi North 3.5 mph - N/A   Unknown
11:15 PM 33.4 °F 30.4 °F 27.3 °F 78% 30.43 in 10.0 mi NNE 3.5 mph - N/A   Unknown
11:35 PM 32.7 °F 29.6 °F 27.1 °F 80% 30.44 in 10.0 mi North 3.5 mph - N/A   Unknown
11:55 PM 32.4 °F 27.9 °F 27.0 °F 80% 30.44 in 10.0 mi NNE 4.6 mph - N/A   Unknown